Location: Del Amo
(33.8464°N, 118.2104°W)
Time: 18:47:26
(UTC+00:00)

Vanguard 3 - Pass Details

Date: 19 September 2024
Orbit: 507 x 3224 km, 33.4° (Epoch: 05 October)

Event Time Altitude Azimuth Distance (km) Brightness Sun altitude
Rises 17:43:39 0° 281° (W) 7,150 11.6 46.4°
Reaches altitude 10° 17:48:28 10° 280° (W) 6,155 11.4 47.2°
Maximum altitude 18:08:00 76° 200° (SSW) 2,790 11.0 50.0°
Drops below altitude 10° 18:21:06 10° 117° (ESE) 4,355 11.6 51.6°
Sets 18:23:54 0° 116° (ESE) 5,050 11.7 52.0°
